Waarnemingen

Advertentie
Mijn weer
Tulloch Bridge, Groot Brittannië (3047): temperatuur & dauwpunt: 31.05.2020 02:00:00 - 06.06.2020 02:00:00 (BST)Tulloch Bridge, Groot Brittannië (3047): temperatuur -20cm & temperatuur -100cm: 31.05.2020 02:00:00 - 06.06.2020 02:00:00 (BST)Tulloch Bridge, Groot Brittannië (3047): windsnelheid & windstoten: 31.05.2020 02:00:00 - 06.06.2020 02:00:00 (BST)Tulloch Bridge, Groot Brittannië (3047): windrichting: 31.05.2020 02:00:00 - 06.06.2020 02:00:00 (BST)Tulloch Bridge, Groot Brittannië (3047): luchtdruk: 31.05.2020 02:00:00 - 06.06.2020 02:00:00 (BST)Tulloch Bridge, Groot Brittannië (3047): zicht: 31.05.2020 02:00:00 - 06.06.2020 02:00:00 (BST)Tulloch Bridge, Groot Brittannië (3047): neerslag: 31.05.2020 02:00:00 - 06.06.2020 02:00:00 (BST)
Datum & Tijd tt [°C] td [°C] tt -20cm [°C] tt -100cm [°C] ff [km/u] ff [kn] fx [km/u] fx [kn] dd ppp [hPa] vv [km] rr [mm]
06.06.2020 02:00:00 8,2 7,0 - - 18 10 - - NW 992,1 15 1,2
06.06.2020 01:00:00 7,9 7,0 - - 15 8 - - NW 991,8 13 1,6
06.06.2020 00:00:00 7,3 6,5 - - 11 6 - - NW 991,8 7 2,2
05.06.2020 23:00:00 6,0 5,3 - - 5 3 - - NW 992,1 5 2,0
05.06.2020 22:00:00 6,2 4,6 - - 15 8 - - W 992,0 11 1,8
05.06.2020 21:00:00 6,3 3,9 - - 24 13 - - W 992,3 13 1,4
05.06.2020 20:00:00 6,3 3,7 - - 24 13 46 25 W 992,6 15 0,8
05.06.2020 19:00:00 6,5 3,6 - - 21 11 - - W 993,0 50 0,2
05.06.2020 18:00:00 6,4 2,9 - - 26 14 48 26 W 993,6 45 0,0
05.06.2020 17:00:00 6,5 2,8 - - 24 13 46 25 W 994,2 25 0,0
05.06.2020 16:00:00 8,9 3,8 - - 26 14 48 26 NW 994,3 16 0,0
05.06.2020 15:00:00 8,2 3,0 - - 24 13 46 25 WNW 994,6 50 0,0
05.06.2020 14:00:00 8,2 2,6 - - 21 11 - - WNW 995,1 23 0,0
05.06.2020 13:00:00 7,2 3,0 - - 24 13 - - W 995,8 8 0,2
05.06.2020 12:00:00 7,9 3,6 - - 21 11 - - W 996,2 9 0,0
05.06.2020 11:00:00 7,2 2,8 - - 16 9 - - W 996,5 50 0,0
05.06.2020 10:00:00 6,8 2,8 13,5 11,7 16 9 - - WNW 997,0 45 0,2
05.06.2020 09:00:00 6,3 1,9 - - 15 8 - - WNW 997,5 35 0,0
05.06.2020 08:00:00 5,7 2,1 - - 11 6 - - WNW 997,9 50 0,0
05.06.2020 07:00:00 5,3 2,1 - - 11 6 - - W 998,2 25 0,0
05.06.2020 06:00:00 4,7 3,1 - - 9 5 - - NW 998,6 40 0,2
05.06.2020 05:00:00 5,1 2,5 - - 5 3 - - WNW 998,7 50 0,0
05.06.2020 04:00:00 4,7 3,0 - - 4 2 - - ZO 999,0 50 0,0
05.06.2020 03:00:00 4,7 2,1 - - 5 3 - - WNW 999,6 50 0,0
05.06.2020 02:00:00 5,3 2,1 - - 5 3 - - W 1000,1 50 0,0
05.06.2020 01:00:00 2,9 2,5 - - 4 2 - - ZZO 1001,0 30 0,0
05.06.2020 00:00:00 4,2 3,7 - - 4 2 - - Z 1001,3 50 0,0
04.06.2020 23:00:00 6,6 2,8 - - 8 4 - - N 1001,3 50 0,0
04.06.2020 22:00:00 7,1 2,9 - - 15 8 - - NNW 1001,3 50 0,0
04.06.2020 21:00:00 7,4 3,5 - - 16 9 - - N 1001,3 15 0,0
04.06.2020 20:00:00 8,8 4,2 - - 8 4 - - NNO 1001,3 50 0,0
04.06.2020 19:00:00 8,9 6,3 - - 4 2 - - ONO 1001,2 50 0,2
04.06.2020 18:00:00 8,9 6,7 - - 4 2 - - NO 1001,4 10 2,0
04.06.2020 17:00:00 10,0 6,3 - - 13 7 - - N 1001,1 30 0,0
04.06.2020 16:00:00 11,2 6,8 - - 11 6 - - N 1000,9 29 0,4
04.06.2020 15:00:00 10,3 7,3 - - 13 7 - - NNW 1001,4 4,1 0,4
04.06.2020 14:00:00 11,4 6,8 - - 9 5 - - NW 1001,6 35 0,8
04.06.2020 13:00:00 10,3 6,8 - - 5 3 - - ZO 1002,1 50 0,0
04.06.2020 12:00:00 9,7 7,5 - - 9 5 - - WNW 1002,6 29 0,8
04.06.2020 11:00:00 10,0 7,6 - - 13 7 - - WNW 1003,2 27 0,0
04.06.2020 10:00:00 8,8 6,5 13,9 11,7 4 2 - - ZZO 1004,0 30 0,0
04.06.2020 09:00:00 6,7 6,1 - - 2 1 - - O 1005,1 9 0,2
04.06.2020 08:00:00 6,6 5,5 - - 5 3 - - Z 1005,8 9 0,0
04.06.2020 07:00:00 5,8 5,2 - - 8 4 - - NO 1006,5 15 0,2
04.06.2020 06:00:00 5,6 5,0 - - 4 2 - - ONO 1007,7 9 0,4
04.06.2020 05:00:00 5,6 4,8 - - 0 0 - - N 1008,6 7 0,6
04.06.2020 04:00:00 6,5 3,3 - - 2 1 - - ONO 1009,4 50 0,0
04.06.2020 03:00:00 6,9 2,9 - - 2 1 - - W 1010,2 50 0,0
04.06.2020 02:00:00 7,1 2,1 - - 5 3 - - W 1011,5 50 0,0
04.06.2020 01:00:00 7,2 2,1 - - 9 5 - - W 1012,3 50 0,0
04.06.2020 00:00:00 7,7 2,7 - - 8 4 - - W 1013,2 50 0,0
03.06.2020 23:00:00 8,5 2,3 - - 9 5 - - NNW 1014,0 50 0,0
03.06.2020 22:00:00 8,9 1,9 - - 11 6 - - N 1014,8 50 0,0
03.06.2020 21:00:00 9,7 2,4 - - 13 7 - - NNW 1014,6 50 0,0
03.06.2020 20:00:00 10,8 2,1 - - 15 8 - - N 1014,9 45 0,0
03.06.2020 19:00:00 12,1 2,0 - - 18 10 - - N 1015,1 45 0,0
03.06.2020 18:00:00 12,4 2,0 - - 15 8 - - N 1015,5 50 0,0
03.06.2020 17:00:00 12,6 2,9 - - 18 10 - - NNW 1016,1 50 0,0
03.06.2020 16:00:00 12,7 0,9 - - 21 11 - - N 1016,5 45 0,0
03.06.2020 15:00:00 13,5 2,2 - - 16 9 - - N 1016,8 30 0,0
03.06.2020 14:00:00 12,2 2,2 - - 16 9 - - N 1017,5 26 0,0
03.06.2020 13:00:00 12,6 3,5 - - 21 11 - - N 1018,0 50 0,0
03.06.2020 12:00:00 11,2 3,0 - - 22 12 - - N 1018,4 35 0,0
03.06.2020 11:00:00 9,6 2,7 - - 22 12 - - N 1018,9 50 0,0
03.06.2020 10:00:00 8,3 3,3 14,0 11,5 16 9 - - N 1019,5 45 0,0
03.06.2020 09:00:00 7,6 2,8 - - 15 8 - - NNW 1019,9 45 0,0
03.06.2020 08:00:00 7,9 2,0 - - 11 6 - - N 1019,7 50 0,0
03.06.2020 07:00:00 8,1 2,9 - - 9 5 - - NNO 1019,8 35 0,0
03.06.2020 06:00:00 7,4 3,4 - - 16 9 - - NNW 1019,9 50 0,0
03.06.2020 05:00:00 7,2 3,8 - - 16 9 - - NNO 1019,9 50 0,0
03.06.2020 04:00:00 7,3 4,4 - - 11 6 - - N 1019,7 50 0,0
03.06.2020 03:00:00 7,1 4,4 - - 11 6 - - NNO 1020,0 50 0,0
03.06.2020 02:00:00 7,4 5,7 - - 8 4 - - N 1020,0 50 0,0
03.06.2020 01:00:00 7,7 5,8 - - 8 4 - - NO 1020,3 40 0,2
03.06.2020 00:00:00 8,1 6,5 - - 9 5 - - O 1020,2 30 0,4
02.06.2020 23:00:00 9,1 7,2 - - 5 3 - - O 1019,9 18 0,0
02.06.2020 22:00:00 9,7 8,0 - - 8 4 - - O 1019,5 45 0,2
02.06.2020 21:00:00 10,7 9,2 - - 5 3 - - O 1018,9 21 1,8
02.06.2020 20:00:00 12,1 10,8 - - 11 6 - - NNW 1018,3 3,7 1,2
02.06.2020 19:00:00 13,0 10,7 - - 9 5 - - WNW 1018,3 18 0,2
02.06.2020 18:00:00 13,6 10,4 - - 8 4 - - W 1018,6 35 0,0
02.06.2020 17:00:00 14,1 11,1 - - 9 5 - - WNW 1019,1 30 0,2
02.06.2020 16:00:00 14,8 10,5 - - 11 6 - - W 1019,6 28 0,0
02.06.2020 15:00:00 15,5 10,3 - - 11 6 - - W 1020,2 35 0,0
02.06.2020 14:00:00 16,8 9,4 - - 9 5 - - W 1020,1 35 0,0
02.06.2020 13:00:00 16,2 10,2 - - 8 4 - - NW 1020,7 30 0,0
02.06.2020 12:00:00 16,8 9,7 - - 9 5 - - NNW 1020,8 45 0,0
02.06.2020 11:00:00 17,1 10,6 - - 8 4 - - NNW 1021,2 50 0,0
02.06.2020 10:00:00 15,5 10,5 - - 2 1 - - NW 1021,9 35 -
02.06.2020 09:00:00 15,5 9,5 - - 4 2 - - Z 1022,2 35 -
02.06.2020 08:00:00 13,2 10,1 - - 2 1 - - N 1022,8 50 0,0
02.06.2020 07:00:00 12,7 9,2 - - 8 4 - - Z 1023,2 50 0,0
02.06.2020 06:00:00 12,0 9,1 - - 8 4 - - ZZO 1023,4 45 0,0
02.06.2020 05:00:00 11,6 9,2 - - 9 5 - - ZZO 1023,8 45 0,0
02.06.2020 04:00:00 11,4 8,7 - - 8 4 - - ZZO 1024,2 45 0,0
02.06.2020 03:00:00 12,1 8,6 - - 8 4 - - ZZO 1024,7 45 0,0
02.06.2020 02:00:00 11,3 8,3 - - 4 2 - - W 1024,9 50 0,0
02.06.2020 01:00:00 10,0 7,7 - - 2 1 - - ZZW 1025,6 40 0,0
02.06.2020 00:00:00 10,5 8,1 - - 4 2 - - ZZO 1025,7 50 0,0
01.06.2020 23:00:00 12,8 7,5 - - 4 2 - - Z 1025,8 50 0,0
01.06.2020 22:00:00 15,5 7,8 - - 4 2 - - NW 1025,5 50 0,0
01.06.2020 21:00:00 18,7 7,8 - - 5 3 - - W 1024,8 40 0,0
01.06.2020 20:00:00 21,0 7,6 - - 9 5 - - W 1024,4 45 0,0
01.06.2020 19:00:00 21,4 7,6 - - 16 9 - - NNW 1024,5 30 0,0
01.06.2020 18:00:00 21,0 7,1 - - 15 8 - - WNW 1024,8 35 0,0
01.06.2020 17:00:00 21,5 6,8 - - 15 8 - - WNW 1025,0 50 0,0
01.06.2020 16:00:00 22,1 7,7 - - 13 7 - - WNW 1025,0 40 0,0
01.06.2020 15:00:00 21,3 7,3 - - 8 4 - - NW 1025,5 35 0,0
01.06.2020 14:00:00 21,0 7,1 - - 8 4 - - WZW 1025,9 45 0,0
01.06.2020 13:00:00 21,3 6,4 - - 8 4 - - ZZW 1026,1 21 0,0
01.06.2020 12:00:00 21,2 7,3 - - 11 6 - - Z 1026,4 21 0,0
01.06.2020 11:00:00 19,8 8,0 - - 11 6 - - Z 1026,8 30 0,0
01.06.2020 10:00:00 17,8 8,6 14,2 11,0 15 8 - - Z 1027,1 40 0,0
01.06.2020 09:00:00 16,2 8,1 - - 9 5 - - Z 1027,3 45 0,0
01.06.2020 08:00:00 12,6 7,4 - - 5 3 - - ZO 1027,8 45 0,0
01.06.2020 07:00:00 11,3 6,9 - - 8 4 - - Z 1028,0 40 0,0
01.06.2020 06:00:00 8,6 6,1 - - 5 3 - - ZO 1028,3 50 0,0
01.06.2020 05:00:00 5,6 4,8 - - 4 2 - - ZZO 1028,3 45 0,0
01.06.2020 04:00:00 7,0 5,9 - - 5 3 - - ZZO 1028,2 50 0,0
01.06.2020 03:00:00 7,4 5,3 - - 4 2 - - Z 1028,0 50 0,0
01.06.2020 02:00:00 9,8 5,6 - - 4 2 - - ZZO 1027,9 50 0,0
01.06.2020 01:00:00 11,3 5,3 - - 5 3 - - O 1027,7 50 0,0
01.06.2020 00:00:00 13,7 6,2 - - 9 5 - - ZO 1027,1 50 0,0
31.05.2020 23:00:00 13,2 6,2 - - 5 3 - - NNO 1027,0 50 0,0
31.05.2020 22:00:00 16,3 6,8 - - 13 7 - - Z 1026,2 50 0,0
31.05.2020 21:00:00 18,1 6,9 - - 11 6 - - ZO 1025,5 50 0,0
31.05.2020 20:00:00 19,2 7,0 - - 9 5 - - Z 1025,1 40 0,0
31.05.2020 19:00:00 20,1 6,0 - - 15 8 - - Z 1024,8 40 0,0
31.05.2020 18:00:00 20,7 4,8 - - 16 9 - - ZZW 1024,7 30 0,0
31.05.2020 17:00:00 21,1 5,1 - - 16 9 - - Z 1024,9 50 0,0
31.05.2020 16:00:00 21,6 5,5 - - 16 9 - - ZZO 1025,1 35 0,0
31.05.2020 15:00:00 21,6 4,0 - - 15 8 - - Z 1025,2 30 0,0
31.05.2020 14:00:00 20,7 3,1 - - 16 9 - - ZZO 1025,5 40 0,0
31.05.2020 13:00:00 19,4 5,9 - - 21 11 - - Z 1026,0 40 0,0
31.05.2020 12:00:00 18,3 6,3 - - 21 11 - - Z 1026,4 35 0,0
31.05.2020 11:00:00 17,9 5,8 - - 18 10 - - ZZO 1026,4 35 0,0
31.05.2020 10:00:00 17,2 6,4 14,0 10,7 9 5 - - ZZO 1026,4 28 0,0
31.05.2020 09:00:00 14,8 6,1 - - 9 5 - - ZO 1026,9 24 0,0
31.05.2020 08:00:00 12,5 6,0 - - 15 8 - - ZZO 1027,0 28 0,0
31.05.2020 07:00:00 11,7 5,4 - - 13 7 - - OZO 1027,0 35 0,0
31.05.2020 06:00:00 10,2 5,1 - - 13 7 - - O 1027,1 45 0,0
31.05.2020 05:00:00 9,0 4,2 - - 8 4 - - OZO 1027,0 50 0,0
31.05.2020 04:00:00 9,3 3,5 - - 15 8 - - Z 1026,9 50 0,0
31.05.2020 03:00:00 9,0 0,1 - - 4 2 - - ONO 1026,9 50 0,0
31.05.2020 02:00:00 11,1 -0,5 - - 9 5 - - OZO 1027,1 50 0,0

tt = temperatuur
td = dauwpunt
tt -20cm = temperatuur -20cm
tt -100cm = temperatuur -100cm
ff = windsnelheid
fx = windstoten
dd = windrichting
ppp = luchtdruk
vv = zicht
rr = neerslag

Weerstations in de omgeving